STARLINK-3945 (52691 NORAD) Tracking and Keplerian Element Data
This shows tracking and keplerian element data for the satellite.
Feedback or suggestion? Click here.
Element | Value |
Catalog | 52691 |
Name | STARLINK-3945 |
Epoch Orbit | 130 |
Epoch Day | 228.91667824 |
Epoch Year | 2022 |
RAAN | 223.4995 |
Inclination | 53.2171 |
Eccentricity | 0.0001877 |
Argument of Perigee | 49.5274 |
Mean Anonmoly | 106.3844 |
Mean Motion | 15.08812325 |
Decay Rate | 0.0003605 |
L1 | 1 52691U 22053AM 22228.91667824 .00036050 00000+0 22733-2 0 9996 |
L2 | 2 52691 53.2171 223.4995 0001877 49.5274 106.3844 15.08812325 1307 |
Live tracking and technical data element details for STARLINK-3945 (NORAD 52691). STARLINK-3945 can be tracked NOW for your location showing map with azimuth and elevation plus other details from your city location.
Track the satellite on the map from your city or location and see movement details for azimuth, elevation, latitude, longitude, range, height, and movement on the map or in text.
IsCatalogInMostPopularTable: catalog: 52691, numindb: 7
Update: records affected: 1
GetName: 52691 STARLINK-3945
Hit Count: updated at: Thu, 18 Aug 2022 20:15:26 GMT